Time,TemperatureF,DewpointF,PressureIn,WindDirection,WindDirectionDegrees,WindSpeedMPH,WindSpeedGustMPH,Humidity,HourlyPrecipIn,Conditions,Clouds,dailyrainin,SoftwareType,DateUTC
2013-08-07 00:02:00,54.0,48.9,29.47,ESE,112,4.6,4.6,83,0.00,CLR,,0.00,WeatherDisplay:10.37,2013-08-06 23:02:00,
2013-08-07 00:07:00,54.0,48.9,29.47,South,180,4.6,4.6,83,0.00,CLR,,0.00,WeatherDisplay:10.37,2013-08-06 23:07:00,
2013-08-07 00:12:00,54.0,48.9,29.46,South,180,4.6,4.6,83,0.00,CLR,,0.00,WeatherDisplay:10.37,2013-08-06 23:12:00,
2013-08-07 00:17:00,53.8,48.7,29.46,SE,135,4.6,4.6,83,0.00,CLR,,0.00,WeatherDisplay:10.37,2013-08-06 23:17:00,
2013-08-07 00:22:00,53.8,48.7,29.46,SSE,158,1.2,1.2,83,0.00,CLR,,0.00,WeatherDisplay:10.37,2013-08-06 23:22:00,
2013-08-07 00:27:00,53.6,48.6,29.46,SE,135,0.0,0.0,83,0.00,CLR,,0.00,WeatherDisplay:10.37,2013-08-06 23:27:00,
2013-08-07 00:32:00,53.4,48.4,29.46,South,180,2.3,2.3,83,0.00,CLR,,0.00,WeatherDisplay:10.37,2013-08-06 23:32:00,
2013-08-07 00:37:00,53.4,48.4,29.46,South,180,0.0,0.0,83,0.00,CLR,,0.00,WeatherDisplay:10.37,2013-08-06 23:37:00,
2013-08-07 00:42:00,53.4,48.4,29.46,SSW,202,0.0,0.0,83,0.00,CLR,,0.00,WeatherDisplay:10.37,2013-08-06 23:42:00,
2013-08-07 00:47:00,53.4,48.4,29.46,SSW,202,2.3,2.3,83,0.00,CLR,,0.00,WeatherDisplay:10.37,2013-08-06 23:47:00,
2013-08-07 00:52:00,53.4,48.4,29.46,SW,225,0.0,0.0,83,0.00,CLR,,0.00,WeatherDisplay:10.37,2013-08-06 23:52:00,
2013-08-07 00:57:00,53.4,48.4,29.46,NW,315,0.0,0.0,83,0.00,CLR,,0.00,WeatherDisplay:10.37,2013-08-06 23:57:00,
2013-08-07 01:02:00,53.4,48.7,29.46,NNW,338,1.2,1.2,84,0.00,CLR,,0.00,WeatherDisplay:10.37,2013-08-07 00:02:00,
2013-08-07 01:07:00,53.4,48.7,29.47,NE,45,0.0,0.0,84,0.00,CLR,,0.00,WeatherDisplay:10.37,2013-08-07 00:07:00,
2013-08-07 01:12:00,53.4,48.7,29.47,NNE,22,2.3,2.3,84,0.00,CLR,,0.00,WeatherDisplay:10.37,2013-08-07 00:12:00,
2013-08-07 01:17:00,53.4,48.7,29.47,NE,45,0.0,0.0,84,0.00,CLR,,0.00,WeatherDisplay:10.37,2013-08-07 00:17:00,
2013-08-07 01:22:00,53.4,48.7,29.47,ESE,112,1.2,1.2,84,0.00,CLR,,0.00,WeatherDisplay:10.37,2013-08-07 00:22:00,
2013-08-07 01:27:00,53.2,48.5,29.47,SE,135,0.0,1.2,84,0.00,CLR,,0.00,WeatherDisplay:10.37,2013-08-07 00:27:00,
2013-08-07 01:32:00,53.2,48.5,29.47,SE,135,1.2,1.2,84,0.00,CLR,,0.00,WeatherDisplay:10.37,2013-08-07 00:32:00,
2013-08-07 01:37:00,53.2,48.5,29.47,South,180,0.0,1.1,84,0.00,CLR,,0.00,WeatherDisplay:10.37,2013-08-07 00:37:00,
2013-08-07 01:42:00,53.2,48.2,29.47,ESE,112,0.0,0.0,83,0.00,CLR,,0.00,WeatherDisplay:10.37,2013-08-07 00:42:00,
2013-08-07 01:47:00,53.2,48.2,29.47,South,180,0.0,0.0,83,0.00,CLR,,0.00,WeatherDisplay:10.37,2013-08-07 00:47:00,
2013-08-07 01:52:00,52.9,47.9,29.47,North,0,0.0,0.0,83,0.00,CLR,,0.00,WeatherDisplay:10.37,2013-08-07 00:52:00,
2013-08-07 01:57:00,52.7,47.7,29.47,NNE,22,0.0,0.0,83,0.00,CLR,,0.00,WeatherDisplay:10.37,2013-08-07 00:57:00,
2013-08-07 02:02:00,52.7,47.7,29.47,ESE,112,1.2,1.2,83,0.00,CLR,,0.00,WeatherDisplay:10.37,2013-08-07 01:02:00,
2013-08-07 02:07:00,52.5,47.5,29.47,SSE,158,2.3,2.5,83,0.00,CLR,,0.00,WeatherDisplay:10.37,2013-08-07 01:07:00,
2013-08-07 02:12:00,52.5,47.5,29.46,ESE,112,1.2,3.1,83,0.00,CLR,,0.00,WeatherDisplay:10.37,2013-08-07 01:12:00,
2013-08-07 02:17:00,52.3,47.6,29.47,ESE,112,2.3,2.9,84,0.00,CLR,,0.00,WeatherDisplay:10.37,2013-08-07 01:17:00,
2013-08-07 02:22:00,52.3,47.6,29.47,SE,135,4.6,4.6,84,0.00,CLR,,0.00,WeatherDisplay:10.37,2013-08-07 01:22:00,
2013-08-07 02:27:00,52.2,47.5,29.47,ESE,112,4.6,4.6,84,0.00,CLR,,0.00,WeatherDisplay:10.37,2013-08-07 01:27:00,
2013-08-07 02:32:00,52.0,47.3,29.47,SE,135,3.5,3.5,84,0.00,CLR,,0.00,WeatherDisplay:10.37,2013-08-07 01:32:00,
2013-08-07 02:37:00,52.0,47.3,29.46,SE,135,4.6,4.6,84,0.00,CLR,,0.00,WeatherDisplay:10.37,2013-08-07 01:37:00,
2013-08-07 02:42:00,51.8,47.1,29.46,SSE,158,3.5,3.5,84,0.00,CLR,,0.00,WeatherDisplay:10.37,2013-08-07 01:42:00,
2013-08-07 02:47:00,51.6,46.9,29.46,SE,135,0.0,1.5,84,0.00,CLR,,0.00,WeatherDisplay:10.37,2013-08-07 01:47:00,
2013-08-07 02:52:00,51.6,46.9,29.46,ESE,112,3.5,3.5,84,0.00,CLR,,0.00,WeatherDisplay:10.37,2013-08-07 01:52:00,
2013-08-07 02:57:00,51.6,46.9,29.46,SSE,158,4.6,4.6,84,0.00,CLR,,0.00,WeatherDisplay:10.37,2013-08-07 01:57:00,
2013-08-07 03:02:00,51.6,46.9,29.46,SE,135,2.3,3.5,84,0.00,CLR,,0.00,WeatherDisplay:10.37,2013-08-07 02:02:00,
2013-08-07 03:07:00,51.6,46.9,29.45,SE,135,2.3,2.6,84,0.00,CLR,,0.00,WeatherDisplay:10.37,2013-08-07 02:07:00,
2013-08-07 03:12:00,51.4,47.1,29.45,SE,135,4.6,4.6,85,0.00,CLR,,0.00,WeatherDisplay:10.37,2013-08-07 02:12:00,
2013-08-07 03:17:00,51.4,47.1,29.45,ESE,112,3.5,3.5,85,0.00,CLR,,0.00,WeatherDisplay:10.37,2013-08-07 02:17:00,
2013-08-07 03:22:00,51.4,47.1,29.45,SE,135,2.3,2.4,85,0.00,CLR,,0.00,WeatherDisplay:10.37,2013-08-07 02:22:00,
2013-08-07 03:27:00,51.4,47.1,29.45,SE,135,0.0,0.0,85,0.00,CLR,,0.00,WeatherDisplay:10.37,2013-08-07 02:27:00,
2013-08-07 03:32:00,51.4,47.1,29.45,SE,135,3.5,3.5,85,0.00,CLR,,0.00,WeatherDisplay:10.37,2013-08-07 02:32:00,
2013-08-07 03:37:00,51.4,47.1,29.44,SE,135,3.5,3.5,85,0.00,CLR,,0.00,WeatherDisplay:10.37,2013-08-07 02:37:00,
2013-08-07 03:42:00,51.4,47.1,29.45,SE,135,3.5,3.5,85,0.00,CLR,,0.00,WeatherDisplay:10.37,2013-08-07 02:42:00,
2013-08-07 03:47:00,51.6,47.3,29.45,ESE,112,3.5,3.5,85,0.00,CLR,,0.00,WeatherDisplay:10.37,2013-08-07 02:47:00,
2013-08-07 03:52:00,51.4,47.1,29.44,SE,135,2.3,2.3,85,0.00,CLR,,0.00,WeatherDisplay:10.37,2013-08-07 02:52:00,
2013-08-07 03:57:00,51.4,47.1,29.44,ESE,112,3.5,3.5,85,0.00,CLR,,0.00,WeatherDisplay:10.37,2013-08-07 02:57:00,
2013-08-07 04:02:00,51.4,47.1,29.45,East,90,3.5,3.5,85,0.00,CLR,,0.00,WeatherDisplay:10.37,2013-08-07 03:02:00,
2013-08-07 04:07:00,51.1,46.7,29.45,ENE,68,0.0,1.0,85,0.00,CLR,,0.00,WeatherDisplay:10.37,2013-08-07 03:07:00,
2013-08-07 04:12:00,51.1,46.7,29.45,North,0,0.0,0.0,85,0.00,CLR,,0.00,WeatherDisplay:10.37,2013-08-07 03:12:00,
2013-08-07 04:17:00,51.3,46.9,29.45,NE,45,0.0,1.1,85,0.00,CLR,,0.00,WeatherDisplay:10.37,2013-08-07 03:17:00,
2013-08-07 04:22:00,51.1,46.7,29.45,ESE,112,2.3,2.5,85,0.00,CLR,,0.00,WeatherDisplay:10.37,2013-08-07 03:22:00,
2013-08-07 04:27:00,51.1,46.7,29.45,East,90,3.5,3.5,85,0.00,CLR,,0.00,WeatherDisplay:10.37,2013-08-07 03:27:00,
2013-08-07 04:32:00,50.9,46.6,29.44,ENE,68,2.3,2.3,85,0.00,CLR,,0.00,WeatherDisplay:10.37,2013-08-07 03:32:00,
2013-08-07 04:37:00,50.9,46.6,29.45,SE,135,3.5,3.5,85,0.00,CLR,,0.00,WeatherDisplay:10.37,2013-08-07 03:37:00,
2013-08-07 04:42:00,50.9,46.6,29.45,SE,135,2.3,2.7,85,0.00,CLR,,0.00,WeatherDisplay:10.37,2013-08-07 03:42:00,
2013-08-07 04:47:00,50.9,46.6,29.45,ESE,112,0.0,2.2,85,0.00,CLR,,0.00,WeatherDisplay:10.37,2013-08-07 03:47:00,
2013-08-07 04:52:00,50.9,46.6,29.45,NE,45,1.2,1.2,85,0.00,CLR,,0.00,WeatherDisplay:10.37,2013-08-07 03:52:00,
2013-08-07 04:57:00,50.9,46.6,29.45,East,90,1.2,1.2,85,0.00,CLR,,0.00,WeatherDisplay:10.37,2013-08-07 03:57:00,
2013-08-07 05:01:00,50.9,46.6,29.45,East,90,0.0,0.0,85,0.00,CLR,,0.00,WeatherDisplay:10.37,2013-08-07 04:01:00,
2013-08-07 05:06:00,50.7,46.4,29.45,NE,45,1.2,1.2,85,0.00,CLR,,0.00,WeatherDisplay:10.37,2013-08-07 04:06:00,
2013-08-07 05:11:00,50.7,46.4,29.45,East,90,0.0,1.1,85,0.00,CLR,,0.00,WeatherDisplay:10.37,2013-08-07 04:11:00,
2013-08-07 05:16:00,50.7,46.4,29.45,ESE,112,2.3,2.3,85,0.00,CLR,,0.00,WeatherDisplay:10.37,2013-08-07 04:16:00,
2013-08-07 05:21:00,50.5,46.2,29.46,SE,135,2.3,2.5,85,0.00,CLR,,0.00,WeatherDisplay:10.37,2013-08-07 04:21:00,
2013-08-07 05:26:00,50.5,46.2,29.46,ESE,112,2.3,2.3,85,0.00,CLR,,0.00,WeatherDisplay:10.37,2013-08-07 04:26:00,
2013-08-07 05:31:00,50.7,46.4,29.46,ESE,112,2.5,2.5,85,0.00,CLR,,0.00,WeatherDisplay:10.37,2013-08-07 04:31:00,
2013-08-07 05:36:00,50.7,46.7,29.46,SE,135,2.3,2.3,86,0.00,CLR,,0.00,WeatherDisplay:10.37,2013-08-07 04:36:00,
2013-08-07 05:41:00,50.7,46.7,29.46,ESE,112,2.3,2.3,86,0.00,CLR,,0.00,WeatherDisplay:10.37,2013-08-07 04:41:00,
2013-08-07 05:46:00,50.9,46.9,29.47,ESE,112,4.6,4.6,86,0.00,CLR,,0.00,WeatherDisplay:10.37,2013-08-07 04:46:00,
2013-08-07 05:51:00,50.9,46.9,29.47,ESE,112,0.0,0.9,86,0.00,CLR,,0.00,WeatherDisplay:10.37,2013-08-07 04:51:00,
2013-08-07 05:56:00,50.9,46.9,29.47,SSE,158,0.0,0.0,86,0.00,CLR,,0.00,WeatherDisplay:10.37,2013-08-07 04:56:00,
2013-08-07 06:01:00,51.1,47.0,29.48,West,270,0.0,0.0,86,0.00,CLR,,0.00,WeatherDisplay:10.37,2013-08-07 05:01:00,
2013-08-07 06:06:00,51.1,47.0,29.48,West,270,0.0,0.0,86,0.00,CLR,,0.00,WeatherDisplay:10.37,2013-08-07 05:06:00,
2013-08-07 06:11:00,51.3,47.2,29.48,SSE,158,0.0,0.0,86,0.00,CLR,,0.00,WeatherDisplay:10.37,2013-08-07 05:11:00,
2013-08-07 06:16:00,51.4,47.4,29.48,SE,135,1.2,1.2,86,0.00,CLR,,0.00,WeatherDisplay:10.37,2013-08-07 05:16:00,
2013-08-07 06:21:00,51.4,47.4,29.48,SE,135,1.2,2.4,86,0.00,CLR,,0.00,WeatherDisplay:10.37,2013-08-07 05:21:00,
2013-08-07 06:26:00,51.4,47.4,29.49,South,180,3.5,3.5,86,0.00,CLR,,0.00,WeatherDisplay:10.37,2013-08-07 05:26:00,
2013-08-07 06:31:00,51.6,47.6,29.49,SSE,158,0.0,0.0,86,0.00,CLR,,0.00,WeatherDisplay:10.37,2013-08-07 05:31:00,
2013-08-07 06:36:00,51.6,47.6,29.49,SE,135,0.0,0.0,86,0.00,CLR,,0.00,WeatherDisplay:10.37,2013-08-07 05:36:00,
2013-08-07 06:41:00,51.6,47.6,29.49,SE,135,2.3,2.3,86,0.00,CLR,,0.00,WeatherDisplay:10.37,2013-08-07 05:41:00,
2013-08-07 06:46:00,51.6,47.6,29.48,SE,135,1.2,1.3,86,0.00,CLR,,0.00,WeatherDisplay:10.37,2013-08-07 05:46:00,
2013-08-07 06:51:00,51.6,47.6,29.48,ESE,112,0.0,0.0,86,0.00,CLR,,0.00,WeatherDisplay:10.37,2013-08-07 05:51:00,
2013-08-07 06:56:00,51.8,47.7,29.48,ESE,112,3.5,3.5,86,0.00,CLR,,0.00,WeatherDisplay:10.37,2013-08-07 05:56:00,
2013-08-07 07:01:00,52.0,47.9,29.48,East,90,2.3,2.5,86,0.00,CLR,,0.00,WeatherDisplay:10.37,2013-08-07 06:01:00,
2013-08-07 07:06:00,52.0,47.9,29.48,ESE,112,2.3,2.3,86,0.00,CLR,,0.00,WeatherDisplay:10.37,2013-08-07 06:06:00,
2013-08-07 07:11:00,52.0,47.9,29.48,ESE,112,0.0,2.0,86,0.00,CLR,,0.00,WeatherDisplay:10.37,2013-08-07 06:11:00,
2013-08-07 07:16:00,52.2,47.8,29.48,SE,135,2.3,2.3,85,0.00,CLR,,0.00,WeatherDisplay:10.37,2013-08-07 06:16:00,
2013-08-07 07:21:00,52.3,48.0,29.48,ESE,112,1.2,1.3,85,0.00,CLR,,0.00,WeatherDisplay:10.37,2013-08-07 06:21:00,
2013-08-07 07:26:00,52.3,48.0,29.47,SE,135,0.0,0.0,85,0.00,CLR,,0.00,WeatherDisplay:10.37,2013-08-07 06:26:00,
2013-08-07 07:31:00,52.5,48.1,29.47,ESE,112,0.0,1.1,85,0.00,CLR,,0.00,WeatherDisplay:10.37,2013-08-07 06:31:00,
2013-08-07 07:36:00,52.5,48.1,29.48,ENE,68,0.0,0.0,85,0.00,CLR,,0.00,WeatherDisplay:10.37,2013-08-07 06:36:00,
2013-08-07 07:41:00,52.7,48.3,29.48,SE,135,0.0,0.0,85,0.00,CLR,,0.00,WeatherDisplay:10.37,2013-08-07 06:41:00,
2013-08-07 07:46:00,52.9,48.5,29.48,SW,225,0.0,0.0,85,0.00,CLR,,0.00,WeatherDisplay:10.37,2013-08-07 06:46:00,
2013-08-07 07:51:00,53.1,48.7,29.48,SW,225,0.0,0.0,85,0.00,CLR,,0.00,WeatherDisplay:10.37,2013-08-07 06:51:00,
2013-08-07 07:56:00,53.4,49.0,29.47,SW,225,0.0,0.0,85,0.00,CLR,,0.00,WeatherDisplay:10.37,2013-08-07 06:56:00,
2013-08-07 08:01:00,53.8,49.4,29.47,SW,225,0.0,0.0,85,0.00,CLR,,0.00,WeatherDisplay:10.37,2013-08-07 07:01:00,
2013-08-07 08:06:00,54.0,49.6,29.47,NE,45,0.0,0.0,85,0.00,CLR,,0.00,WeatherDisplay:10.37,2013-08-07 07:06:00,
2013-08-07 08:11:00,54.0,49.6,29.47,WNW,292,0.0,0.0,85,0.00,CLR,,0.00,WeatherDisplay:10.37,2013-08-07 07:11:00,
2013-08-07 08:16:00,54.5,50.1,29.47,SE,135,0.0,0.0,85,0.00,CLR,,0.00,WeatherDisplay:10.37,2013-08-07 07:16:00,
2013-08-07 08:21:00,55.0,50.6,29.48,West,270,0.0,0.0,85,0.00,CLR,,0.00,WeatherDisplay:10.37,2013-08-07 07:21:00,
2013-08-07 08:26:00,55.2,50.8,29.49,NW,315,0.0,0.0,85,0.00,CLR,,0.00,WeatherDisplay:10.37,2013-08-07 07:26:00,
2013-08-07 08:31:00,55.4,51.0,29.49,SSW,202,1.2,0.0,85,0.00,CLR,,0.00,WeatherDisplay:10.37,2013-08-07 07:31:00,
2013-08-07 08:36:00,55.6,50.8,29.49,SSW,202,2.3,2.3,84,0.00,CLR,,0.00,WeatherDisplay:10.37,2013-08-07 07:36:00,
2013-08-07 08:41:00,55.8,51.0,29.49,SE,135,3.5,3.5,84,0.00,CLR,,0.00,WeatherDisplay:10.37,2013-08-07 07:41:00,
2013-08-07 08:46:00,55.9,50.9,29.50,West,270,0.0,0.0,83,0.00,CLR,,0.00,WeatherDisplay:10.37,2013-08-07 07:46:00,
2013-08-07 08:51:00,56.3,51.5,29.50,SW,225,2.3,2.3,84,0.00,CLR,,0.00,WeatherDisplay:10.37,2013-08-07 07:51:00,
2013-08-07 08:56:00,56.8,51.7,29.50,South,180,3.5,3.5,83,0.00,CLR,,0.00,WeatherDisplay:10.37,2013-08-07 07:56:00,
2013-08-07 09:01:00,57.4,52.3,29.50,SSW,202,0.0,4.6,83,0.00,CLR,,0.00,WeatherDisplay:10.37,2013-08-07 08:01:00,
2013-08-07 09:06:00,57.7,52.6,29.49,SSW,202,1.2,1.2,83,0.00,CLR,,0.00,WeatherDisplay:10.37,2013-08-07 08:06:00,
2013-08-07 09:11:00,58.1,52.3,29.50,SE,135,2.3,3.8,81,0.00,CLR,,0.00,WeatherDisplay:10.37,2013-08-07 08:11:00,
2013-08-07 09:16:00,58.1,52.3,29.50,WNW,292,0.0,0.0,81,0.00,CLR,,0.00,WeatherDisplay:10.37,2013-08-07 08:16:00,
2013-08-07 09:21:00,58.3,52.1,29.49,WSW,248,4.6,4.6,80,0.00,CLR,,0.00,WeatherDisplay:10.37,2013-08-07 08:21:00,
2013-08-07 09:26:00,58.3,52.1,29.49,SSW,202,3.5,3.5,80,0.00,CLR,,0.00,WeatherDisplay:10.37,2013-08-07 08:26:00,
2013-08-07 09:31:00,58.5,52.3,29.49,West,270,2.3,5.0,80,0.00,CLR,,0.00,WeatherDisplay:10.37,2013-08-07 08:31:00,
2013-08-07 09:36:00,58.6,52.5,29.49,WSW,248,8.1,8.1,80,0.00,CLR,,0.00,WeatherDisplay:10.37,2013-08-07 08:36:00,
2013-08-07 09:41:00,58.8,52.3,29.49,SSW,202,2.3,3.1,79,0.00,CLR,,0.00,WeatherDisplay:10.37,2013-08-07 08:41:00,
2013-08-07 09:46:00,59.4,52.8,29.49,WSW,248,5.8,5.8,79,0.00,CLR,,0.00,WeatherDisplay:10.37,2013-08-07 08:46:00,
2013-08-07 09:51:00,59.9,53.4,29.49,SSW,202,2.3,2.9,79,0.00,CLR,,0.00,WeatherDisplay:10.37,2013-08-07 08:51:00,
2013-08-07 09:56:00,61.5,54.6,29.50,WSW,248,3.5,3.8,78,0.00,CLR,,0.00,WeatherDisplay:10.37,2013-08-07 08:56:00,
2013-08-07 10:01:00,64.2,57.6,29.50,WSW,248,3.5,3.5,79,0.00,CLR,,0.00,WeatherDisplay:10.37,2013-08-07 09:01:00,
2013-08-07 10:06:00,68.5,59.9,29.49,SW,225,4.6,4.6,74,0.00,CLR,,0.00,WeatherDisplay:10.37,2013-08-07 09:06:00,
2013-08-07 10:11:00,71.2,60.1,29.50,West,270,2.3,2.3,68,0.00,CLR,,0.00,WeatherDisplay:10.37,2013-08-07 09:11:00,
2013-08-07 10:16:00,74.1,61.2,29.50,WSW,248,4.6,4.6,64,0.00,CLR,,0.00,WeatherDisplay:10.37,2013-08-07 09:16:00,
2013-08-07 10:21:00,74.8,60.5,29.50,West,270,1.2,3.6,61,0.00,CLR,,0.00,WeatherDisplay:10.37,2013-08-07 09:21:00,
2013-08-07 10:26:00,75.7,59.4,29.49,West,270,3.5,3.9,57,0.00,CLR,,0.00,WeatherDisplay:10.37,2013-08-07 09:26:00,
2013-08-07 10:31:00,74.5,57.8,29.49,West,270,4.6,4.6,56,0.00,CLR,,0.00,WeatherDisplay:10.37,2013-08-07 09:31:00,
2013-08-07 10:36:00,73.2,57.6,29.49,SSW,202,11.5,11.5,58,0.00,CLR,,0.00,WeatherDisplay:10.37,2013-08-07 09:36:00,
2013-08-07 10:41:00,72.5,56.9,29.49,West,270,3.5,3.5,58,0.00,CLR,,0.00,WeatherDisplay:10.37,2013-08-07 09:41:00,
2013-08-07 10:46:00,72.3,56.7,29.49,SSW,202,3.5,3.5,58,0.00,CLR,,0.00,WeatherDisplay:10.37,2013-08-07 09:46:00,
2013-08-07 10:51:00,72.3,56.7,29.49,West,270,3.5,3.5,58,0.00,CLR,,0.00,WeatherDisplay:10.37,2013-08-07 09:51:00,
2013-08-07 10:56:00,75.2,59.9,29.50,South,180,3.5,3.5,59,0.00,CLR,,0.00,WeatherDisplay:10.37,2013-08-07 09:56:00,
2013-08-07 11:01:00,76.5,60.1,29.49,South,180,0.0,2.9,57,0.00,CLR,,0.00,WeatherDisplay:10.37,2013-08-07 10:01:00,
2013-08-07 11:06:00,77.5,60.6,29.50,SSE,158,3.5,3.5,56,0.00,CLR,,0.00,WeatherDisplay:10.37,2013-08-07 10:06:00,
2013-08-07 11:11:00,78.4,60.4,29.49,SSE,158,3.5,3.5,54,0.00,CLR,,0.00,WeatherDisplay:10.37,2013-08-07 10:11:00,
2013-08-07 11:16:00,76.6,58.7,29.49,WSW,248,4.6,4.6,54,0.00,CLR,,0.00,WeatherDisplay:10.37,2013-08-07 10:16:00,
2013-08-07 11:21:00,75.2,56.9,29.49,SW,225,1.2,3.1,53,0.00,CLR,,0.00,WeatherDisplay:10.37,2013-08-07 10:21:00,
2013-08-07 11:26:00,72.5,54.9,29.49,South,180,3.5,3.7,54,0.00,CLR,,0.00,WeatherDisplay:10.37,2013-08-07 10:26:00,
2013-08-07 11:31:00,70.9,54.4,29.50,South,180,3.5,3.5,56,0.00,CLR,,0.00,WeatherDisplay:10.37,2013-08-07 10:31:00,
2013-08-07 11:36:00,69.4,53.1,29.50,WSW,248,3.5,3.5,56,0.00,CLR,,0.00,WeatherDisplay:10.37,2013-08-07 10:36:00,
2013-08-07 11:41:00,68.7,53.8,29.50,NW,315,5.8,5.8,59,0.00,CLR,,0.00,WeatherDisplay:10.37,2013-08-07 10:41:00,
2013-08-07 11:46:00,67.8,53.9,29.50,NW,315,3.5,3.5,61,0.00,CLR,,0.00,WeatherDisplay:10.37,2013-08-07 10:46:00,
2013-08-07 11:51:00,67.3,53.4,29.50,WNW,292,1.2,1.2,61,0.00,CLR,,0.00,WeatherDisplay:10.37,2013-08-07 10:51:00,
2013-08-07 11:56:00,66.4,53.0,29.50,WNW,292,1.2,1.2,62,0.00,CLR,,0.00,WeatherDisplay:10.37,2013-08-07 10:56:00,
2013-08-07 12:01:00,66.0,53.5,29.50,West,270,0.0,2.5,64,0.00,CLR,,0.00,WeatherDisplay:10.37,2013-08-07 11:01:00,
2013-08-07 12:06:00,66.0,53.9,29.50,WSW,248,0.0,0.0,65,0.00,CLR,,0.00,WeatherDisplay:10.37,2013-08-07 11:06:00,
2013-08-07 12:11:00,66.0,53.9,29.50,West,270,1.2,1.2,65,0.00,CLR,,0.00,WeatherDisplay:10.37,2013-08-07 11:11:00,
2013-08-07 12:16:00,66.6,54.4,29.50,NE,45,1.2,1.2,65,0.00,CLR,,0.00,WeatherDisplay:10.37,2013-08-07 11:16:00,
2013-08-07 12:21:00,66.6,54.0,29.50,SSW,202,1.2,1.2,64,0.00,CLR,,0.00,WeatherDisplay:10.37,2013-08-07 11:21:00,
2013-08-07 12:26:00,66.6,54.0,29.50,SW,225,1.2,1.5,64,0.00,CLR,,0.00,WeatherDisplay:10.37,2013-08-07 11:26:00,
2013-08-07 12:31:00,66.7,54.2,29.50,SE,135,2.3,2.4,64,0.00,CLR,,0.00,WeatherDisplay:10.37,2013-08-07 11:31:00,
2013-08-07 12:36:00,66.9,54.8,29.50,SSE,158,3.5,3.5,65,0.00,CLR,,0.00,WeatherDisplay:10.37,2013-08-07 11:36:00,
2013-08-07 12:41:00,67.3,55.1,29.50,WSW,248,2.3,2.3,65,0.00,CLR,,0.00,WeatherDisplay:10.37,2013-08-07 11:41:00,
2013-08-07 12:46:00,68.2,55.5,29.50,WSW,248,5.8,5.8,64,0.00,CLR,,0.00,WeatherDisplay:10.37,2013-08-07 11:46:00,
2013-08-07 12:51:00,68.4,55.7,29.50,SW,225,0.0,1.9,64,0.00,CLR,,0.00,WeatherDisplay:10.37,2013-08-07 11:51:00,
2013-08-07 12:56:00,68.2,55.1,29.50,SSE,158,0.0,0.0,63,0.00,CLR,,0.00,WeatherDisplay:10.37,2013-08-07 11:56:00,
2013-08-07 13:01:00,67.6,54.6,29.50,West,270,0.0,1.1,63,0.00,CLR,,0.00,WeatherDisplay:10.37,2013-08-07 12:01:00,
2013-08-07 13:06:00,67.3,54.3,29.50,West,270,1.2,1.2,63,0.00,CLR,,0.00,WeatherDisplay:10.37,2013-08-07 12:06:00,
2013-08-07 13:11:00,66.9,54.3,29.50,West,270,0.0,0.0,64,0.00,CLR,,0.00,WeatherDisplay:10.37,2013-08-07 12:11:00,
2013-08-07 13:16:00,66.7,54.6,29.50,SW,225,2.3,2.3,65,0.00,CLR,,0.00,WeatherDisplay:10.37,2013-08-07 12:16:00,
2013-08-07 13:21:00,66.7,54.6,29.50,West,270,2.3,2.3,65,0.00,CLR,,0.00,WeatherDisplay:10.37,2013-08-07 12:21:00,
2013-08-07 13:26:00,66.7,54.6,29.50,West,270,2.3,2.3,65,0.00,CLR,,0.00,WeatherDisplay:10.37,2013-08-07 12:26:00,
2013-08-07 13:31:00,66.2,54.1,29.50,WSW,248,2.3,2.3,65,0.00,CLR,,0.00,WeatherDisplay:10.37,2013-08-07 12:31:00,
2013-08-07 13:36:00,66.0,53.9,29.50,SW,225,3.5,3.5,65,0.00,CLR,,0.00,WeatherDisplay:10.37,2013-08-07 12:36:00,
2013-08-07 13:41:00,65.1,53.5,29.51,SSW,202,1.2,1.9,66,0.00,CLR,,0.00,WeatherDisplay:10.37,2013-08-07 12:41:00,
2013-08-07 13:46:00,64.6,53.0,29.50,WSW,248,4.6,4.6,66,0.00,CLR,,0.00,WeatherDisplay:10.37,2013-08-07 12:46:00,
2013-08-07 13:51:00,64.2,52.6,29.50,WSW,248,1.2,1.2,66,0.00,CLR,,0.00,WeatherDisplay:10.37,2013-08-07 12:51:00,
2013-08-07 13:56:00,63.7,52.5,29.50,West,270,1.2,1.2,67,0.00,CLR,,0.00,WeatherDisplay:10.37,2013-08-07 12:56:00,
2013-08-07 14:01:00,63.5,52.3,29.50,NNW,338,1.2,1.2,67,0.00,CLR,,0.00,WeatherDisplay:10.37,2013-08-07 13:01:00,
2013-08-07 14:06:00,63.3,52.6,29.50,WSW,248,4.6,4.6,68,0.00,CLR,,0.00,WeatherDisplay:10.37,2013-08-07 13:06:00,
2013-08-07 14:11:00,63.1,52.4,29.50,SW,225,2.3,4.5,68,0.00,CLR,,0.00,WeatherDisplay:10.37,2013-08-07 13:11:00,
2013-08-07 14:16:00,63.0,52.6,29.50,West,270,2.3,2.3,69,0.00,CLR,,0.00,WeatherDisplay:10.37,2013-08-07 13:16:00,
2013-08-07 14:21:00,62.8,52.5,29.50,WSW,248,0.0,0.9,69,0.00,CLR,,0.00,WeatherDisplay:10.37,2013-08-07 13:21:00,
2013-08-07 14:26:00,62.4,52.5,29.50,West,270,3.5,3.5,70,0.00,CLR,,0.00,WeatherDisplay:10.37,2013-08-07 13:26:00,
2013-08-07 14:31:00,62.4,52.5,29.50,NW,315,1.2,3.3,70,0.00,CLR,,0.00,WeatherDisplay:10.37,2013-08-07 13:31:00,
2013-08-07 14:36:00,62.2,52.3,29.50,NNW,338,2.3,2.3,70,0.00,CLR,,0.00,WeatherDisplay:10.37,2013-08-07 13:36:00,
2013-08-07 14:41:00,62.1,52.5,29.51,West,270,2.3,2.3,71,0.00,CLR,,0.00,WeatherDisplay:10.37,2013-08-07 13:41:00,
2013-08-07 14:46:00,62.2,52.7,29.51,North,0,0.0,0.0,71,0.00,CLR,,0.00,WeatherDisplay:10.37,2013-08-07 13:46:00,
2013-08-07 14:51:00,62.4,53.3,29.51,NW,315,0.0,0.0,72,0.00,CLR,,0.00,WeatherDisplay:10.37,2013-08-07 13:51:00,
2013-08-07 14:56:00,63.0,53.4,29.50,East,90,1.2,1.2,71,0.00,CLR,,0.00,WeatherDisplay:10.37,2013-08-07 13:56:00,
2013-08-07 15:01:00,63.5,53.9,29.50,ESE,112,2.3,2.5,71,0.00,CLR,,0.00,WeatherDisplay:10.37,2013-08-07 14:01:00,
2013-08-07 15:06:00,63.9,53.9,29.50,SSE,158,3.5,3.5,70,0.00,CLR,,0.00,WeatherDisplay:10.37,2013-08-07 14:06:00,
2013-08-07 15:11:00,64.0,53.7,29.50,South,180,0.0,0.0,69,0.00,CLR,,0.00,WeatherDisplay:10.37,2013-08-07 14:11:00,
2013-08-07 15:16:00,64.4,53.6,29.50,SE,135,0.0,0.0,68,0.00,CLR,,0.00,WeatherDisplay:10.37,2013-08-07 14:16:00,
2013-08-07 15:21:00,64.6,53.8,29.50,SSE,158,0.0,0.0,68,0.00,CLR,,0.00,WeatherDisplay:10.37,2013-08-07 14:21:00,
2013-08-07 15:26:00,64.9,53.7,29.50,ESE,112,1.2,1.2,67,0.00,CLR,,0.00,WeatherDisplay:10.37,2013-08-07 14:26:00,
2013-08-07 15:31:00,65.1,54.3,29.50,NNE,22,1.2,2.3,68,0.00,CLR,,0.00,WeatherDisplay:10.37,2013-08-07 14:31:00,
2013-08-07 15:36:00,65.1,54.3,29.50,SSW,202,0.0,0.0,68,0.00,CLR,,0.00,WeatherDisplay:10.37,2013-08-07 14:36:00,
2013-08-07 15:41:00,65.3,54.1,29.50,ESE,112,0.0,0.0,67,0.00,CLR,,0.00,WeatherDisplay:10.37,2013-08-07 14:41:00,
2013-08-07 15:46:00,65.1,53.5,29.50,NNW,338,1.2,1.2,66,0.00,CLR,,0.00,WeatherDisplay:10.37,2013-08-07 14:46:00,
2013-08-07 15:51:00,65.1,53.5,29.50,ESE,112,1.2,1.2,66,0.00,CLR,,0.00,WeatherDisplay:10.37,2013-08-07 14:51:00,
2013-08-07 15:56:00,64.9,53.3,29.50,SSE,158,2.3,2.3,66,0.00,CLR,,0.00,WeatherDisplay:10.37,2013-08-07 14:56:00,
2013-08-07 16:01:00,64.6,53.0,29.50,NNE,22,2.3,2.3,66,0.00,CLR,,0.00,WeatherDisplay:10.37,2013-08-07 15:01:00,
2013-08-07 16:06:00,64.2,52.6,29.50,ENE,68,2.3,2.3,66,0.00,CLR,,0.00,WeatherDisplay:10.37,2013-08-07 15:06:00,
2013-08-07 16:11:00,64.0,52.4,29.49,East,90,0.0,0.0,66,0.00,CLR,,0.00,WeatherDisplay:10.37,2013-08-07 15:11:00,
2013-08-07 16:16:00,63.7,52.5,29.50,SE,135,0.0,0.0,67,0.00,CLR,,0.00,WeatherDisplay:10.37,2013-08-07 15:16:00,
2013-08-07 16:21:00,63.5,52.7,29.50,NE,45,0.0,0.9,68,0.00,CLR,,0.00,WeatherDisplay:10.37,2013-08-07 15:21:00,
2013-08-07 16:26:00,63.1,52.4,29.50,NNE,22,1.2,1.2,68,0.00,CLR,,0.00,WeatherDisplay:10.37,2013-08-07 15:26:00,
2013-08-07 16:31:00,63.1,52.4,29.50,NE,45,2.3,2.3,68,0.00,CLR,,0.00,WeatherDisplay:10.37,2013-08-07 15:31:00,
2013-08-07 16:36:00,63.1,52.4,29.50,North,0,0.0,0.0,68,0.00,CLR,,0.00,WeatherDisplay:10.37,2013-08-07 15:36:00,
2013-08-07 16:41:00,63.0,52.2,29.50,NNE,22,0.0,0.0,68,0.00,CLR,,0.00,WeatherDisplay:10.37,2013-08-07 15:41:00,
2013-08-07 16:46:00,62.8,52.5,29.50,North,0,0.0,0.0,69,0.00,CLR,,0.00,WeatherDisplay:10.37,2013-08-07 15:46:00,
2013-08-07 16:51:00,62.4,52.1,29.50,North,0,1.2,1.2,69,0.00,CLR,,0.00,WeatherDisplay:10.37,2013-08-07 15:51:00,
2013-08-07 16:56:00,62.4,52.5,29.50,North,0,1.2,1.2,70,0.00,CLR,,0.00,WeatherDisplay:10.37,2013-08-07 15:56:00,
2013-08-07 17:01:00,62.2,52.7,29.50,NNW,338,1.2,1.9,71,0.00,CLR,,0.00,WeatherDisplay:10.37,2013-08-07 16:01:00,
2013-08-07 17:06:00,61.9,52.4,29.51,NNE,22,0.0,0.0,71,0.00,CLR,,0.00,WeatherDisplay:10.37,2013-08-07 16:06:00,
2013-08-07 17:11:00,61.9,52.4,29.51,NNW,338,0.0,0.0,71,0.00,CLR,,0.00,WeatherDisplay:10.37,2013-08-07 16:11:00,
2013-08-07 17:16:00,61.5,52.4,29.51,NNE,22,1.2,1.2,72,0.00,CLR,,0.00,WeatherDisplay:10.37,2013-08-07 16:16:00,
2013-08-07 17:21:00,61.5,52.4,29.51,NNW,338,0.0,0.0,72,0.00,CLR,,0.00,WeatherDisplay:10.37,2013-08-07 16:21:00,
2013-08-07 17:26:00,61.2,52.8,29.51,NNW,338,1.2,1.2,74,0.00,CLR,,0.00,WeatherDisplay:10.37,2013-08-07 16:26:00,
2013-08-07 17:31:00,60.6,52.3,29.51,NNW,338,0.0,0.0,74,0.00,CLR,,0.00,WeatherDisplay:10.37,2013-08-07 16:31:00,
2013-08-07 17:36:00,60.6,52.6,29.51,NNW,338,0.0,0.0,75,0.00,CLR,,0.00,WeatherDisplay:10.37,2013-08-07 16:36:00,
2013-08-07 17:41:00,60.4,52.8,29.51,North,0,0.0,0.0,76,0.00,CLR,,0.00,WeatherDisplay:10.37,2013-08-07 16:41:00,
2013-08-07 17:46:00,60.3,52.7,29.51,North,0,0.0,0.0,76,0.02,RA,,0.02,WeatherDisplay:10.37,2013-08-07 16:46:00,
2013-08-07 17:51:00,60.1,52.8,29.51,NNE,22,1.2,1.2,77,0.02,RA,,0.02,WeatherDisplay:10.37,2013-08-07 16:51:00,
2013-08-07 17:56:00,59.9,52.7,29.51,North,0,0.0,0.0,77,0.02,CLR,,0.02,WeatherDisplay:10.37,2013-08-07 16:56:00,
2013-08-07 18:01:00,59.7,52.8,29.51,North,0,0.0,0.7,78,0.06,RA,,0.06,WeatherDisplay:10.37,2013-08-07 17:01:00,
2013-08-07 18:06:00,59.5,52.7,29.51,NE,45,1.2,1.2,78,0.08,RA,,0.08,WeatherDisplay:10.37,2013-08-07 17:06:00,
2013-08-07 18:11:00,59.4,52.8,29.51,NE,45,0.0,0.0,79,0.08,RA,,0.08,WeatherDisplay:10.37,2013-08-07 17:11:00,
2013-08-07 18:16:00,59.0,52.8,29.51,ENE,68,0.0,0.0,80,0.08,CLR,,0.08,WeatherDisplay:10.37,2013-08-07 17:16:00,
2013-08-07 18:21:00,58.8,52.7,29.51,NNW,338,1.2,1.2,80,0.08,CLR,,0.08,WeatherDisplay:10.37,2013-08-07 17:21:00,
2013-08-07 18:26:00,58.8,52.7,29.51,NNW,338,0.0,0.0,80,0.08,CLR,,0.08,WeatherDisplay:10.37,2013-08-07 17:26:00,
2013-08-07 18:31:00,58.8,53.0,29.52,North,0,0.0,0.0,81,0.08,CLR,,0.08,WeatherDisplay:10.37,2013-08-07 17:31:00,
2013-08-07 18:36:00,58.6,52.8,29.52,North,0,0.0,0.0,81,0.10,RA,,0.10,WeatherDisplay:10.37,2013-08-07 17:36:00,
2013-08-07 18:41:00,58.6,52.8,29.52,North,0,0.0,0.0,81,0.12,RA,,0.12,WeatherDisplay:10.37,2013-08-07 17:41:00,
2013-08-07 18:46:00,58.6,52.8,29.52,North,0,0.0,0.0,81,0.10,RA,,0.12,WeatherDisplay:10.37,2013-08-07 17:46:00,
2013-08-07 18:51:00,58.5,53.0,29.52,North,0,0.0,0.0,82,0.12,RA,,0.14,WeatherDisplay:10.37,2013-08-07 17:51:00,
2013-08-07 18:56:00,58.3,52.8,29.52,NNE,22,0.0,0.0,82,0.12,RA,,0.14,WeatherDisplay:10.37,2013-08-07 17:56:00,
2013-08-07 19:01:00,58.1,53.0,29.52,NE,45,0.0,1.1,83,0.08,CLR,,0.14,WeatherDisplay:10.37,2013-08-07 18:01:00,
2013-08-07 19:06:00,57.9,52.8,29.52,ENE,68,0.0,0.0,83,0.06,CLR,,0.14,WeatherDisplay:10.37,2013-08-07 18:06:00,
2013-08-07 19:11:00,57.9,52.8,29.51,ENE,68,0.0,0.0,83,0.06,CLR,,0.14,WeatherDisplay:10.37,2013-08-07 18:11:00,
2013-08-07 19:16:00,57.7,52.6,29.51,NE,45,0.0,0.0,83,0.06,CLR,,0.14,WeatherDisplay:10.37,2013-08-07 18:16:00,
2013-08-07 19:21:00,57.6,52.4,29.51,ENE,68,2.3,2.3,83,0.06,CLR,,0.14,WeatherDisplay:10.37,2013-08-07 18:21:00,
2013-08-07 19:26:00,57.6,52.8,29.52,NE,45,1.2,1.6,84,0.06,CLR,,0.14,WeatherDisplay:10.37,2013-08-07 18:26:00,
2013-08-07 19:31:00,57.6,52.8,29.52,East,90,0.0,0.0,84,0.06,CLR,,0.14,WeatherDisplay:10.37,2013-08-07 18:31:00,
2013-08-07 19:36:00,57.7,52.9,29.52,ENE,68,0.0,0.0,84,0.04,CLR,,0.14,WeatherDisplay:10.37,2013-08-07 18:36:00,
2013-08-07 19:41:00,57.6,52.8,29.52,NE,45,1.2,1.2,84,0.02,CLR,,0.14,WeatherDisplay:10.37,2013-08-07 18:41:00,
2013-08-07 19:46:00,57.7,52.9,29.53,North,0,0.0,0.0,84,0.02,CLR,,0.14,WeatherDisplay:10.37,2013-08-07 18:46:00,
2013-08-07 19:51:00,57.7,52.9,29.52,North,0,0.0,0.0,84,0.00,CLR,,0.14,WeatherDisplay:10.37,2013-08-07 18:51:00,
2013-08-07 19:56:00,57.7,52.9,29.52,East,90,1.2,1.2,84,0.00,CLR,,0.14,WeatherDisplay:10.37,2013-08-07 18:56:00,
2013-08-07 20:01:00,57.7,52.9,29.52,SE,135,1.2,1.2,84,0.00,CLR,,0.14,WeatherDisplay:10.37,2013-08-07 19:01:00,
2013-08-07 20:06:00,57.7,53.3,29.52,ENE,68,1.2,1.3,85,0.00,CLR,,0.14,WeatherDisplay:10.37,2013-08-07 19:06:00,
2013-08-07 20:11:00,57.6,52.8,29.52,ENE,68,0.0,1.1,84,0.00,CLR,,0.14,WeatherDisplay:10.37,2013-08-07 19:11:00,
2013-08-07 20:16:00,57.6,52.8,29.52,East,90,0.0,0.0,84,0.00,CLR,,0.14,WeatherDisplay:10.37,2013-08-07 19:16:00,
2013-08-07 20:21:00,57.7,52.9,29.52,SE,135,0.0,1.5,84,0.00,CLR,,0.14,WeatherDisplay:10.37,2013-08-07 19:21:00,
2013-08-07 20:26:00,57.6,52.8,29.53,SE,135,3.5,3.5,84,0.00,CLR,,0.14,WeatherDisplay:10.37,2013-08-07 19:26:00,
2013-08-07 20:31:00,57.6,53.1,29.53,SE,135,3.5,3.5,85,0.00,CLR,,0.14,WeatherDisplay:10.37,2013-08-07 19:31:00,
2013-08-07 20:36:00,57.4,52.9,29.53,ESE,112,2.3,2.5,85,0.00,CLR,,0.14,WeatherDisplay:10.37,2013-08-07 19:36:00,
2013-08-07 20:41:00,57.4,52.9,29.53,East,90,4.6,4.6,85,0.00,CLR,,0.14,WeatherDisplay:10.37,2013-08-07 19:41:00,
2013-08-07 20:46:00,57.4,52.9,29.53,ESE,112,2.3,2.3,85,0.00,CLR,,0.14,WeatherDisplay:10.37,2013-08-07 19:46:00,
2013-08-07 20:51:00,57.4,52.9,29.53,SE,135,1.2,2.4,85,0.00,CLR,,0.14,WeatherDisplay:10.37,2013-08-07 19:51:00,
2013-08-07 20:56:00,57.2,53.0,29.53,SSE,158,5.8,5.8,86,0.00,CLR,,0.14,WeatherDisplay:10.37,2013-08-07 19:56:00,
2013-08-07 21:01:00,57.0,52.9,29.53,SE,135,5.8,5.8,86,0.00,CLR,,0.14,WeatherDisplay:10.37,2013-08-07 20:01:00,
2013-08-07 21:06:00,57.0,52.9,29.53,SE,135,0.0,0.0,86,0.00,CLR,,0.14,WeatherDisplay:10.37,2013-08-07 20:06:00,
2013-08-07 21:11:00,57.0,52.9,29.53,ESE,112,1.2,3.9,86,0.00,CLR,,0.14,WeatherDisplay:10.37,2013-08-07 20:11:00,
2013-08-07 21:16:00,56.8,52.4,29.53,ESE,112,2.3,2.3,85,0.00,CLR,,0.14,WeatherDisplay:10.37,2013-08-07 20:16:00,
2013-08-07 21:21:00,57.0,52.9,29.53,ESE,112,2.3,2.3,86,0.00,CLR,,0.14,WeatherDisplay:10.37,2013-08-07 20:21:00,
2013-08-07 21:26:00,56.8,52.4,29.53,ESE,112,2.3,2.3,85,0.00,CLR,,0.14,WeatherDisplay:10.37,2013-08-07 20:26:00,
2013-08-07 21:31:00,56.8,52.4,29.53,SE,135,5.8,5.8,85,0.00,CLR,,0.14,WeatherDisplay:10.37,2013-08-07 20:31:00,
2013-08-07 21:36:00,56.8,52.4,29.53,ESE,112,2.3,2.3,85,0.00,CLR,,0.14,WeatherDisplay:10.37,2013-08-07 20:36:00,
2013-08-07 21:41:00,56.8,52.4,29.54,ESE,112,2.3,3.5,85,0.00,CLR,,0.14,WeatherDisplay:10.37,2013-08-07 20:41:00,
2013-08-07 21:46:00,56.7,52.5,29.54,ESE,112,2.3,2.3,86,0.00,CLR,,0.14,WeatherDisplay:10.37,2013-08-07 20:46:00,
2013-08-07 21:51:00,56.5,52.0,29.54,ENE,68,1.2,1.2,85,0.00,CLR,,0.14,WeatherDisplay:10.37,2013-08-07 20:51:00,
2013-08-07 21:56:00,56.5,52.0,29.53,ENE,68,0.0,0.0,85,0.00,CLR,,0.14,WeatherDisplay:10.37,2013-08-07 20:56:00,
2013-08-07 22:01:00,56.3,51.8,29.53,East,90,2.3,2.3,85,0.00,CLR,,0.14,WeatherDisplay:10.37,2013-08-07 21:01:00,
2013-08-07 22:06:00,56.3,51.8,29.53,East,90,0.0,0.0,85,0.00,CLR,,0.14,WeatherDisplay:10.37,2013-08-07 21:06:00,
2013-08-07 22:11:00,56.1,51.7,29.54,East,90,0.0,0.0,85,0.00,CLR,,0.14,WeatherDisplay:10.37,2013-08-07 21:11:00,
2013-08-07 22:16:00,55.9,51.5,29.54,ESE,112,2.3,2.3,85,0.00,CLR,,0.14,WeatherDisplay:10.37,2013-08-07 21:16:00,
2013-08-07 22:21:00,55.8,51.6,29.54,SE,135,0.0,0.0,86,0.00,CLR,,0.14,WeatherDisplay:10.37,2013-08-07 21:21:00,
2013-08-07 22:26:00,55.6,51.5,29.54,SE,135,0.0,0.0,86,0.00,CLR,,0.14,WeatherDisplay:10.37,2013-08-07 21:26:00,
2013-08-07 22:31:00,55.4,51.3,29.54,SE,135,0.0,0.0,86,0.00,CLR,,0.14,WeatherDisplay:10.37,2013-08-07 21:31:00,
2013-08-07 22:36:00,55.2,51.1,29.54,ESE,112,0.0,0.0,86,0.00,CLR,,0.14,WeatherDisplay:10.37,2013-08-07 21:36:00,
2013-08-07 22:41:00,55.2,51.1,29.54,ENE,68,0.0,0.0,86,0.00,CLR,,0.14,WeatherDisplay:10.37,2013-08-07 21:41:00,
2013-08-07 22:46:00,55.0,50.9,29.54,NE,45,0.0,0.0,86,0.00,CLR,,0.14,WeatherDisplay:10.37,2013-08-07 21:46:00,
2013-08-07 22:51:00,54.9,50.8,29.54,ENE,68,1.2,1.2,86,0.00,CLR,,0.14,WeatherDisplay:10.37,2013-08-07 21:51:00,
2013-08-07 22:56:00,54.7,50.6,29.55,NNE,22,0.0,0.0,86,0.00,CLR,,0.14,WeatherDisplay:10.37,2013-08-07 21:56:00,
2013-08-07 23:01:00,54.7,50.6,29.55,NNE,22,0.0,0.0,86,0.00,CLR,,0.14,WeatherDisplay:10.37,2013-08-07 22:01:00,
2013-08-07 23:06:00,54.7,50.9,29.55,NNE,22,0.0,0.0,87,0.00,CLR,,0.14,WeatherDisplay:10.37,2013-08-07 22:06:00,
2013-08-07 23:11:00,54.5,50.7,29.55,NNE,22,0.0,0.0,87,0.00,CLR,,0.14,WeatherDisplay:10.37,2013-08-07 22:11:00,
2013-08-07 23:16:00,54.5,50.7,29.55,NNE,22,0.0,0.0,87,0.00,CLR,,0.14,WeatherDisplay:10.37,2013-08-07 22:16:00,
2013-08-07 23:21:00,54.5,50.7,29.55,NNE,22,0.0,0.0,87,0.00,CLR,,0.14,WeatherDisplay:10.37,2013-08-07 22:21:00,
2013-08-07 23:26:00,54.3,50.5,29.55,NNE,22,0.0,0.0,87,0.00,CLR,,0.14,WeatherDisplay:10.37,2013-08-07 22:26:00,
2013-08-07 23:31:00,54.3,50.5,29.54,NNE,22,0.0,0.0,87,0.00,CLR,,0.14,WeatherDisplay:10.37,2013-08-07 22:31:00,
2013-08-07 23:36:00,54.3,50.5,29.55,North,0,0.0,0.0,87,0.00,CLR,,0.14,WeatherDisplay:10.37,2013-08-07 22:36:00,
2013-08-07 23:41:00,54.3,50.5,29.55,North,0,0.0,0.0,87,0.00,CLR,,0.14,WeatherDisplay:10.37,2013-08-07 22:41:00,
2013-08-07 23:46:00,54.1,50.4,29.55,NE,45,0.0,0.0,87,0.00,CLR,,0.14,WeatherDisplay:10.37,2013-08-07 22:46:00,
2013-08-07 23:51:00,54.0,50.2,29.55,NE,45,0.0,0.0,87,0.00,CLR,,0.14,WeatherDisplay:10.37,2013-08-07 22:51:00,
2013-08-07 23:56:00,53.8,50.0,29.55,NE,45,0.0,0.0,87,0.00,CLR,,0.14,WeatherDisplay:10.37,2013-08-07 22:56:00,